Total_Precipitation_Accumulation
0.19 0.20 0.22 0.24 0.25 0.27 0.35 0.33 0.37 0.34 0.36 0.39 0.37 0.38 0.38 0.39 0.40 0.42 0.42 0.42 0.43 0.44 0.52 0.56 0.57 0.53 0.50 0.49 0.56 0.56 0.52 0.53 0.52 0.53 0.57 0.59 0.65 0.73 0.70 0.76 1.02 1.00 0.71 0.35 0.21 0.18 0.20 0.19 0.15 0.19 0.22 0.29 0.36 0.37 0.36 0.27 0.27 0.30 0.31 0.39 0.45 0.52 0.55
0.21 0.21 0.22 0.24 0.25 0.25 0.27 0.35 0.35 0.35 0.39 0.41 0.39 0.39 0.40 0.45 0.49 0.47 0.48 0.46 0.47 0.44 0.46 0.53 0.58 0.55 0.51 0.51 0.61 0.62 0.62 0.59 0.54 0.57 0.57 0.54 0.58 0.65 0.63 0.60 0.78 0.86 0.73 0.55 0.30 0.23 0.19 0.20 0.14 0.19 0.17 0.23 0.27 0.33 0.37 0.38 0.33 0.31 0.31 0.32 0.35 0.41 0.41
0.23 0.23 0.23 0.23 0.22 0.22 0.25 0.27 0.30 0.28 0.35 0.40 0.40 0.40 0.39 0.40 0.42 0.44 0.45 0.44 0.44 0.43 0.44 0.49 0.53 0.54 0.52 0.52 0.64 0.64 0.65 0.62 0.62 0.59 0.57 0.56 0.49 0.50 0.48 0.51 0.63 0.78 0.76 0.58 0.46 0.29 0.26 0.24 0.21 0.21 0.22 0.21 0.26 0.28 0.26 0.36 0.40 0.39 0.38 0.36 0.37 0.38 0.37
0.22 0.23 0.23 0.25 0.25 0.30 0.25 0.26 0.24 0.27 0.31 0.33 0.32 0.36 0.40 0.36 0.36 0.38 0.42 0.45 0.44 0.44 0.48 0.52 0.56 0.56 0.55 0.60 0.66 0.66 0.66 0.69 0.70 0.70 0.67 0.61 0.53 0.50 0.45 0.40 0.43 0.52 0.66 0.59 0.56 0.39 0.32 0.26 0.24 0.22 0.19 0.20 0.22 0.29 0.34 0.35 0.41 0.41 0.42 0.39 0.42 0.38 0.42
0.25 0.27 0.28 0.28 0.27 0.25 0.25 0.25 0.25 0.26 0.27 0.27 0.28 0.31 0.33 0.35 0.37 0.39 0.40 0.40 0.43 0.48 0.50 0.51 0.52 0.50 0.51 0.56 0.67 0.66 0.69 0.70 0.73 0.76 0.77 0.77 0.68 0.66 0.61 0.55 0.53 0.54 0.54 0.68 0.62 0.47 0.31 0.25 0.24 0.24 0.23 0.22 0.27 0.30 0.34 0.37 0.42 0.45 0.49 0.48 0.45 0.42 0.41
0.31 0.31 0.29 0.28 0.28 0.27 0.30 0.27 0.28 0.29 0.32 0.29 0.26 0.26 0.27 0.28 0.29 0.30 0.32 0.35 0.37 0.39 0.43 0.46 0.46 0.45 0.47 0.50 0.58 0.62 0.60 0.67 0.76 0.80 0.79 0.81 0.82 0.83 0.79 0.79 0.77 0.72 0.74 0.74 0.69 0.56 0.44 0.29 0.27 0.27 0.27 0.27 0.29 0.31 0.34 0.41 0.44 0.42 0.49 0.55 0.57 0.55 0.50
0.33 0.33 0.32 0.31 0.31 0.30 0.30 0.29 0.28 0.29 0.29 0.29 0.28 0.30 0.30 0.29 0.29 0.29 0.28 0.29 0.29 0.28 0.31 0.34 0.37 0.38 0.40 0.45 0.49 0.52 0.52 0.54 0.56 0.68 0.74 0.77 0.80 0.79 0.86 0.98 1.00 0.93 0.88 0.86 0.82 0.75 0.55 0.45 0.37 0.29 0.33 0.25 0.23 0.26 0.29 0.35 0.43 0.50 0.47 0.50 0.51 0.53 0.51
0.34 0.31 0.31 0.32 0.31 0.30 0.29 0.29 0.29 0.29 0.30 0.30 0.30 0.31 0.32 0.32 0.35 0.36 0.33 0.29 0.26 0.26 0.28 0.28 0.29 0.30 0.29 0.30 0.33 0.37 0.38 0.42 0.51 0.56 0.65 0.65 0.69 0.77 0.92 1.01 0.98 0.95 0.95 0.97 0.92 0.80 0.68 0.53 0.43 0.34 0.28 0.29 0.30 0.35 0.36 0.32 0.37 0.47 0.46 0.47 0.48 0.48 0.51
0.35 0.34 0.34 0.30 0.30 0.31 0.28 0.30 0.29 0.29 0.35 0.36 0.35 0.38 0.45 0.44 0.45 0.42 0.39 0.36 0.34 0.31 0.29 0.27 0.26 0.25 0.29 0.26 0.26 0.27 0.30 0.34 0.41 0.52 0.63 0.62 0.64 0.76 0.88 0.96 0.96 0.99 1.01 0.99 0.92 0.84 0.63 0.57 0.48 0.41 0.36 0.33 0.36 0.42 0.43 0.33 0.31 0.39 0.36 0.36 0.38 0.44 0.49
0.35 0.37 0.45 0.34 0.32 0.30 0.33 0.31 0.29 0.30 0.40 0.42 0.56 0.67 0.71 0.72 0.69 0.64 0.62 0.58 0.52 0.44 0.37 0.33 0.30 0.26 0.23 0.23 0.25 0.28 0.31 0.37 0.43 0.46 0.54 0.65 0.68 0.76 0.88 0.96 1.00 0.98 0.91 0.91 0.98 0.85 0.70 0.68 0.56 0.44 0.36 0.33 0.29 0.25 0.24 0.27 0.32 0.39 0.35 0.30 0.36 0.38 0.46
0.42 0.40 0.39 0.38 0.38 0.41 0.39 0.37 0.32 0.32 0.50 0.72 0.94 0.99 1.04 0.99 0.88 0.76 0.69 0.62 0.57 0.50 0.39 0.33 0.29 0.27 0.25 0.25 0.27 0.29 0.33 0.38 0.41 0.48 0.55 0.56 0.61 0.74 0.92 1.09 1.15 1.05 0.92 0.94 0.90 0.79 0.67 0.62 0.53 0.39 0.35 0.34 0.30 0.26 0.29 0.32 0.34 0.39 0.39 0.44 0.48 0.53 0.44
0.47 0.40 0.38 0.38 0.39 0.41 0.40 0.41 0.35 0.42 0.72 0.91 1.19 1.47 1.38 1.22 1.06 0.90 0.78 0.68 0.62 0.55 0.48 0.43 0.38 0.35 0.32 0.32 0.31 0.33 0.35 0.40 0.44 0.49 0.52 0.57 0.65 0.73 0.87 1.04 1.05 1.11 1.06 0.93 0.93 0.89 0.75 0.68 0.55 0.38 0.33 0.31 0.32 0.37 0.35 0.37 0.42 0.48 0.53 0.53 0.51 0.46 0.44
0.43 0.43 0.44 0.45 0.50 0.45 0.43 0.43 0.39 0.52 0.81 1.00 1.36 1.69 1.78 1.44 1.19 1.01 0.81 0.67 0.59 0.54 0.49 0.45 0.47 0.44 0.40 0.35 0.32 0.35 0.35 0.38 0.39 0.42 0.47 0.53 0.58 0.62 0.77 1.00 1.25 1.18 1.01 1.10 1.08 1.05 0.84 0.62 0.57 0.56 0.39 0.29 0.34 0.41 0.50 0.48 0.55 0.57 0.58 0.58 0.55 0.46 0.36
0.50 0.50 0.55 0.56 0.58 0.55 0.54 0.51 0.49 0.60 0.94 1.27 1.55 1.92 2.14 1.58 1.32 1.06 0.87 0.71 0.60 0.53 0.47 0.45 0.46 0.48 0.44 0.37 0.35 0.36 0.38 0.39 0.42 0.44 0.47 0.53 0.58 0.61 0.59 0.69 0.76 0.77 0.73 0.83 0.99 1.10 1.03 0.65 0.59 0.51 0.47 0.58 0.50 0.58 0.72 0.74 0.73 0.67 0.68 0.66 0.62 0.46 0.41
0.57 0.59 0.62 0.63 0.72 0.70 0.68 0.59 0.57 0.79 1.15 1.38 1.66 1.95 2.46 1.80 1.48 1.16 0.90 0.70 0.60 0.56 0.52 0.47 0.45 0.44 0.43 0.39 0.39 0.39 0.39 0.43 0.47 0.50 0.56 0.55 0.52 0.48 0.44 0.41 0.40 0.48 0.63 0.72 0.68 0.77 0.80 0.67 0.55 0.49 0.46 0.46 0.57 0.77 0.85 0.81 0.79 0.73 0.74 0.74 0.66 0.63 0.57
0.50 0.52 0.54 0.53 0.58 0.64 0.63 0.50 0.56 0.84 1.14 1.35 1.71 2.21 2.07 1.88 1.45 1.14 0.91 0.72 0.61 0.55 0.50 0.46 0.48 0.51 0.50 0.44 0.41 0.39 0.59 0.54 0.56 0.68 0.71 0.65 0.53 0.44 0.38 0.35 0.32 0.46 0.57 0.52 0.67 0.74 0.71 0.68 0.66 0.84 0.85 0.87 0.91 0.89 0.87 0.88 0.91 0.93 1.01 1.08 1.09 0.89 0.58
0.40 0.43 0.48 0.49 0.50 0.53 0.49 0.46 0.50 0.70 1.02 1.21 1.58 2.34 2.40 2.02 1.48 1.11 0.87 0.68 0.58 0.53 0.50 0.46 0.46 0.49 0.52 0.47 0.43 0.42 0.68 0.85 0.96 1.01 0.98 0.87 0.71 0.56 0.48 0.40 0.28 0.46 0.89 1.36 1.72 1.98 1.76 1.66 1.71 1.86 2.11 2.13 2.11 1.58 1.50 1.52 1.59 1.38 1.00 1.03 1.06 0.77 0.50
0.42 0.42 0.44 0.48 0.49 0.48 0.51 0.46 0.44 0.59 0.83 1.06 1.45 1.95 1.99 1.87 1.59 1.17 0.91 0.76 0.64 0.58 0.55 0.46 0.49 0.49 0.51 0.52 0.45 0.59 0.84 1.14 1.22 1.45 1.26 1.09 0.95 0.79 0.65 0.44 0.28 0.24 0.29 0.71 1.25 1.58 1.69 1.89 1.67 1.62 1.64 1.88 1.88 1.76 1.33 1.59 1.79 1.20 0.78 0.87 0.81 0.75 0.46
0.43 0.41 0.42 0.43 0.45 0.47 0.52 0.50 0.45 0.51 0.77 1.05 1.51 1.78 1.87 1.79 1.54 1.30 1.02 0.87 0.77 0.62 0.53 0.45 0.43 0.50 0.58 0.55 0.55 0.89 1.15 1.66 1.47 1.55 1.33 1.02 0.95 0.93 0.78 0.51 0.34 0.30 0.31 0.33 0.42 0.53 0.62 0.76 0.96 0.91 0.92 0.81 0.92 1.05 1.21 1.17 1.21 1.03 0.97 1.01 0.81 0.67 0.59
0.37 0.37 0.39 0.41 0.49 0.52 0.51 0.51 0.49 0.53 0.69 1.06 1.43 1.58 1.61 1.57 1.44 1.34 1.13 0.99 0.84 0.82 0.71 0.56 0.50 0.46 0.52 0.82 1.11 1.13 1.51 1.70 2.27 1.74 1.64 1.30 1.21 1.07 0.77 0.45 0.35 0.36 0.39 0.40 0.41 0.40 0.36 0.42 0.48 0.61 0.75 0.77 0.71 0.66 0.74 0.96 0.83 0.85 0.90 0.93 0.86 0.70 0.64
0.37 0.42 0.46 0.44 0.46 0.50 0.52 0.52 0.50 0.45 0.61 1.00 1.17 1.20 1.64 1.54 1.33 1.10 1.01 0.97 0.93 0.78 0.68 0.61 0.54 0.49 0.46 0.58 0.88 1.14 1.49 1.75 2.22 2.23 1.71 1.56 1.38 1.01 0.72 0.60 0.67 0.60 0.50 0.54 0.49 0.44 0.41 0.40 0.44 0.55 0.65 0.75 0.70 0.66 0.65 0.78 0.62 0.65 0.59 0.73 0.84 0.81 0.73
0.46 0.46 0.39 0.36 0.40 0.46 0.47 0.45 0.44 0.49 0.56 0.83 1.06 1.20 1.45 1.45 1.30 1.03 1.09 1.13 0.90 0.70 0.59 0.50 0.47 0.48 0.49 0.55 0.80 1.23 1.79 1.98 2.28 2.46 1.75 1.53 1.69 1.67 1.41 0.88 0.77 0.68 0.65 0.59 0.56 0.53 0.50 0.48 0.47 0.49 0.53 0.65 0.69 0.65 0.73 0.65 0.60 0.52 0.47 0.43 0.46 0.57 0.66
0.47 0.43 0.40 0.39 0.42 0.44 0.43 0.42 0.42 0.54 0.50 0.61 0.90 1.07 1.27 1.43 1.47 1.37 1.09 1.06 0.95 0.72 0.56 0.47 0.47 0.45 0.52 0.68 1.23 1.62 1.96 2.07 2.23 2.00 1.88 1.98 1.77 1.64 1.38 1.28 1.25 1.07 0.93 0.79 0.66 0.60 0.62 0.53 0.44 0.47 0.45 0.45 0.55 0.55 0.49 0.55 0.54 0.54 0.52 0.52 0.44 0.40 0.42
0.48 0.41 0.42 0.44 0.45 0.43 0.41 0.41 0.47 0.49 0.45 0.50 0.67 0.96 1.24 1.27 1.42 1.37 1.10 0.98 0.85 0.71 0.63 0.58 0.53 0.58 0.76 1.14 1.23 1.40 1.67 1.89 1.72 1.69 1.92 2.00 1.73 1.29 1.24 1.34 1.42 1.36 1.23 1.00 0.82 0.72 0.61 0.51 0.37 0.36 0.36 0.38 0.36 0.46 0.53 0.55 0.58 0.54 0.54 0.55 0.50 0.41 0.39
0.41 0.44 0.44 0.44 0.44 0.45 0.45 0.45 0.48 0.45 0.45 0.48 0.53 0.67 0.86 0.99 1.11 1.06 0.96 0.88 0.74 0.67 0.66 0.63 0.72 0.86 0.98 1.10 1.21 1.28 1.22 1.26 1.17 1.20 1.48 1.36 1.36 1.36 1.30 1.38 1.26 1.13 1.07 1.16 1.06 0.80 0.56 0.39 0.32 0.30 0.30 0.31 0.38 0.46 0.60 0.68 0.70 0.68 0.59 0.57 0.54 0.50 0.40
0.46 0.44 0.42 0.43 0.42 0.47 0.50 0.54 0.48 0.43 0.45 0.50 0.53 0.56 0.65 0.76 0.75 0.76 0.73 0.78 0.69 0.56 0.51 0.55 0.70 0.60 0.63 0.69 0.77 0.88 1.02 1.25 0.98 0.87 0.86 1.00 1.15 1.19 1.28 1.26 1.12 0.93 0.89 0.87 0.71 0.63 0.56 0.43 0.33 0.35 0.40 0.38 0.44 0.56 0.63 0.68 0.72 0.77 0.73 0.66 0.68 0.66 0.61
0.49 0.50 0.50 0.51 0.49 0.53 0.54 0.55 0.46 0.44 0.47 0.55 0.63 0.64 0.65 0.68 0.67 0.71 0.63 0.64 0.70 0.64 0.55 0.51 0.55 0.56 0.60 0.63 0.65 0.77 0.87 0.82 0.71 0.74 0.92 0.82 0.80 1.05 1.15 1.35 0.98 0.78 0.76 0.66 0.58 0.54 0.46 0.43 0.50 0.48 0.59 0.64 0.60 0.60 0.55 0.53 0.56 0.66 0.67 0.61 0.60 0.60 0.60
0.70 0.74 0.75 0.78 0.72 0.71 0.62 0.54 0.47 0.46 0.56 0.74 0.78 0.78 0.71 0.69 0.69 0.76 0.76 0.62 0.62 0.62 0.58 0.61 0.60 0.63 0.63 0.72 0.77 0.79 0.80 0.78 0.75 0.68 0.63 0.63 0.70 0.80 0.88 0.99 0.97 0.91 0.91 0.77 0.73 0.75 0.64 0.67 0.67 0.73 0.67 0.59 0.56 0.49 0.44 0.46 0.55 0.57 0.65 0.69 0.68 0.83 0.76
1.16 1.06 1.05 0.93 0.92 0.98 0.87 0.71 0.69 0.63 0.71 0.86 0.89 0.92 0.92 0.92 0.85 0.78 0.77 0.64 0.66 0.75 0.74 0.68 0.66 0.63 0.60 0.58 0.58 0.61 0.63 0.62 0.60 0.58 0.59 0.67 0.70 0.68 0.71 0.74 0.90 0.96 0.83 0.68 0.72 0.82 0.79 0.78 0.75 0.69 0.60 0.63 0.63 0.54 0.46 0.47 0.57 0.59 0.61 0.70 0.81 0.88 0.68
1.42 1.36 1.30 1.17 0.90 0.92 1.10 1.03 0.85 0.78 1.03 1.10 1.15 1.30 1.11 1.02 1.09 1.00 0.86 0.74 0.71 0.71 0.73 0.65 0.57 0.52 0.49 0.47 0.46 0.48 0.47 0.48 0.49 0.51 0.53 0.58 0.64 0.63 0.66 0.68 0.72 0.76 0.70 0.64 0.73 0.69 0.75 0.71 0.68 0.63 0.60 0.61 0.60 0.56 0.50 0.48 0.58 0.63 0.65 0.78 0.90 0.89 0.74
1.30 1.36 1.15 1.12 1.23 1.03 0.77 0.74 0.69 0.70 0.99 1.15 1.38 1.38 1.24 1.30 1.20 1.13 1.03 0.87 0.83 0.77 0.67 0.58 0.50 0.45 0.42 0.40 0.40 0.42 0.42 0.43 0.46 0.46 0.47 0.50 0.53 0.55 0.59 0.62 0.62 0.67 0.66 0.65 0.67 0.70 0.73 0.68 0.66 0.61 0.52 0.52 0.47 0.47 0.52 0.59 0.66 0.63 0.70 0.76 0.72 0.71 0.61
1.05 1.15 1.28 1.11 1.16 1.29 1.06 0.85 0.80 0.81 1.14 1.32 1.51 1.52 1.32 1.28 1.33 1.24 1.08 0.88 0.86 0.82 0.65 0.51 0.44 0.42 0.40 0.38 0.40 0.38 0.37 0.42 0.47 0.48 0.49 0.47 0.44 0.41 0.41 0.46 0.53 0.58 0.61 0.63 0.64 0.64 0.67 0.71 0.70 0.65 0.57 0.50 0.46 0.46 0.49 0.56 0.67 0.74 0.85 0.80 0.72 0.65 0.56
0.69 0.78 0.93 0.99 1.16 1.28 1.25 1.03 0.99 1.00 1.18 1.28 1.38 1.32 1.11 1.09 1.09 0.94 0.86 0.76 0.68 0.62 0.54 0.46 0.43 0.43 0.41 0.40 0.40 0.38 0.40 0.44 0.48 0.43 0.42 0.41 0.42 0.38 0.33 0.34 0.37 0.44 0.53 0.56 0.57 0.59 0.60 0.70 0.63 0.68 0.66 0.63 0.55 0.53 0.52 0.46 0.49 0.51 0.56 0.64 0.73 0.66 0.58
0.54 0.52 0.57 0.59 0.73 0.87 0.93 0.85 0.84 0.84 0.84 0.93 1.03 1.02 1.03 1.06 0.92 0.80 0.82 0.71 0.64 0.56 0.51 0.44 0.43 0.41 0.42 0.42 0.43 0.43 0.44 0.45 0.45 0.39 0.37 0.33 0.31 0.31 0.31 0.28 0.30 0.37 0.42 0.44 0.47 0.51 0.49 0.53 0.56 0.64 0.68 0.71 0.64 0.57 0.51 0.52 0.48 0.46 0.56 0.62 0.59 0.55 0.52
0.44 0.42 0.47 0.56 0.58 0.69 0.74 0.65 0.62 0.71 0.84 0.93 0.96 0.96 1.08 0.90 0.82 0.82 0.65 0.51 0.50 0.51 0.48 0.44 0.41 0.40 0.37 0.37 0.39 0.40 0.41 0.41 0.41 0.37 0.35 0.34 0.31 0.28 0.29 0.32 0.31 0.30 0.31 0.34 0.37 0.41 0.44 0.45 0.50 0.54 0.56 0.58 0.60 0.60 0.61 0.54 0.50 0.50 0.49 0.51 0.54 0.51 0.48
0.46 0.42 0.42 0.50 0.48 0.52 0.65 0.66 0.60 0.63 0.79 0.98 0.98 0.99 0.90 0.87 0.71 0.57 0.50 0.44 0.42 0.43 0.44 0.43 0.43 0.41 0.40 0.41 0.43 0.43 0.42 0.40 0.40 0.40 0.40 0.37 0.36 0.33 0.31 0.32 0.32 0.30 0.30 0.29 0.31 0.34 0.36 0.40 0.45 0.49 0.55 0.56 0.54 0.52 0.48 0.44 0.43 0.43 0.45 0.47 0.49 0.53 0.50